Location: Zagreb
(45.8000°N, 16.0000°E)
Time: 14:28:49
(UTC+02:00)

ISS - Pass Details

Date: 28 September 2021
Orbit: 417 x 423 km, 51.6° (Epoch: 16 October)

Event Time Altitude Azimuth Distance (km) Brightness Sun altitude
Rises 20:58:20 0° 298° (WNW) 2,367 1.5 -24.1°
Reaches altitude 10° 21:00:27 10° 302° (WNW) 1,502 0.1 -24.4°
Enters shadow 21:02:31 33° 316° (NW) 725 -2.1 -24.8°
